Find Starlink 38237

NORAD ID: 100373 Int'l Des: 2026-190 Owner: SPXS Country: US Constellation: starlink operational

Current View

Loading 3D Globe...

About Starlink 38237

Starlink 38237 (NORAD 100373) is a starlink constellation satellite launched Aug 19, 2026 by SPXS of US. with a mass of 575.00 kg.

Upcoming Passes

Passes for default location (London). Set your location on the main map for personalized predictions.

Altitude History

Loading altitude history...

Two-Line Element Set

1 A0373U 26190C 26255.54648765 .00201531 00000-0 13160-2 0 9991
2 A0373 97.2810 109.5117 0001804 102.5214 257.6254 15.75267242 5124
Epoch: Sep 12, 2026 • Age: 15 hours

Current Status

Altitude 349.4 km
Apogee / Perigee N/A
Velocity 7.70 km/s
Sub-Earth Point 45.08°N, 42.4°E
Launch Date Aug 19, 2026
Age 25 days
Type internet

Technical Details

Classification Payload
Mass 575.00 kg
Dry Mass 530.00 kg
Total Mass 575.00 kg
Length 0.30 m
Diameter 4.10 m
Span 29.00 m
Shape Box + pan
Manufacturer SPXS
Bus Type Starlink V2MO
Phase Status In Orbit
Owner/State SPXS/US

Most Searched